[Date Prev][Date Next][Thread Prev][Thread Next] - [Date Index][Thread Index][Author Index]

2 Line ISS Keps 2-6



ISS
1 25544U 98067A   05036.98338676  .00010199  00000-0  85601-4 0  7525
2 25544  51.6453 211.8250 0009701  69.6889  69.3398 15.70577716355050
----
Via the sarex mailing list at AMSAT.ORG courtesy of AMSAT-NA.
To unsubscribe, send "unsubscribe sarex" to Majordomo@amsat.org



AMSAT Top AMSAT Home